Location: Oak Glen
(34.0495°N, 116.9470°E)
Time: 07:42:56
(UTC-08:00)

Envisat - Pass Details

Date: 12 October 2017
Orbit: 764 x 766 km, 98.2° (Epoch: 11 December)

Event Time Altitude Azimuth Distance (km) Brightness Sun altitude
Exits shadow 05:12:15 28° 346° (NNW) 1,425 4.5 -31.7°
Drops below altitude 10° 05:14:32 10° 347° (NNW) 2,306 5.7 -32.2°
Sets 05:16:51 0° 348° (NNW) 3,236 6.6 -32.7°
